www.pogodaiklimat.ru

Погода и климат >> Архив погоды >> Иран >> Jask


ПОГОДА в Jask

  • Прогноз погоды в Jask
  • Монитор погоды в Jask
  • Климат города

АРХИВ ПОГОДЫ в Jask

Время (UTC), дата Ветер
(напр.,м/с)
 
Видим.   Явления Облачность Т
(С)
Тd
(С)
f
(%)
Тe
(С)
Тes
(С)
Комфортность P
(гПа)
Po
(гПа)
Тmin
(С)
Tmax
(С)
R
(мм)
R24
(мм)
S
(см)
15 11.08 Ю 5 6000 м мгла 1/0
[Cs]
+31.8 +27.7 79 +51 +51 опасность
перегрева
996.8 996.3 +33.0
18 11.08 ЮЗ 4 5000 м дымка ясно +31.2 +28.0 83 +51 +51 опасность
перегрева
998.6 998.0
21 11.08 З 3 5000 м дымка ясно +31.1 +28.6 87 +53 +53 опасность
перегрева
997.2 996.7
00 12.08 штиль 0 5000 м дымка ясно +31.1 +28.6 87 +53 +53 опасность
перегрева
996.3 995.8
03 12.08 Ю 3 3000 м дымка 1/1 450 м
[St Ac trans]
+31.3 +29.3 89 +55 +57 опасность
перегрева
996.9 996.3 +30.9
06 12.08 Ю 3 2500 м дымка 8/8 300 м
[St]
+32.8 +31.0 90 +63 +66 опасность
перегрева
997.3 996.7
09 12.08 ЮЗ 5 4000 м дымка ясно +35.0 +32.1 85 +70 +81 опасность
перегрева
995.1 994.5
12 12.08 З 8 5000 м мгла ясно +36.3 +30.8 73 992.5 991.9
15 12.08 З 7 6000 м мгла ясно +35.9 +28.9 67 +59 +59 опасность
перегрева
991.3 990.8 +36.6
18 12.08 З 6 7000 м мгла ясно +35.4 +28.3 67 +57 +57 опасность
перегрева
992.4 991.9
21 12.08 З 4 6000 м мгла ясно +34.3 +28.4 71 +56 +56 опасность
перегрева
991.4 990.9
00 13.08 З 4 5000 м мгла ясно +34.0 +27.3 68 +53 +53 опасность
перегрева
990.4 989.8
03 13.08 СЗ 5 5000 м мгла ясно +34.5 +27.2 66 +53 +54 опасность
перегрева
991.6 991.0 +33.8
06 13.08 З 3 6000 м мгла ясно +38.8 992.2 991.7
09 13.08 З 6 6000 м мгла ясно +37.7 +30.9 68 +67 +75 опасность
перегрева
991.5 990.9
12 13.08 З 7 4000 м мгла ясно +35.7 990.3 989.7
15 13.08 З 2 4000 м мгла ясно +34.8 +30.0 76 +62 +62 опасность
перегрева
990.6 990.1 +41.0
18 13.08 штиль 0 5000 м мгла ясно +36.5 +28.8 65 +59 +59 опасность
перегрева
992.2 991.7
21 13.08 штиль 0 5000 м мгла ясно +34.0 +27.8 70 +54 +54 опасность
перегрева
992.6 992.0
00 14.08 З 2 5000 м дымка ясно +32.4 +29.3 84 +57 +57 опасность
перегрева
993.4 992.8
03 14.08 В 8 4000 м дымка ясно +31.8 +30.2 91 +59 +59 опасность
перегрева
995.0 994.5 +31.7
06 14.08 В 10 4000 м дымка ясно +33.3 +30.2 84 995.9 995.4
09 14.08 ЮВ 10 2500 м дымка ясно +32.6 +29.9 86 +59 +60 опасность
перегрева
995.6 995.0
12 14.08 ЮВ 6 3000 м дымка 4/4 600 м
[St]
+32.2 +30.0 88 +59 +60 опасность
перегрева
994.3 993.7
15 14.08 В 4 4000 м дымка 1/1 600 м
[St]
+31.5 +29.4 89 +56 +56 опасность
перегрева
995.0 994.4 +33.5
18 14.08 В 6 4000 м дымка ясно +31.4 +29.5 90 +56 +56 опасность
перегрева
996.7 996.2
21 14.08 В 6 4000 м дымка ясно +31.2 +29.5 91 +56 +56 опасность
перегрева
996.2 995.7
00 15.08 В 9 3000 м дымка ясно +30.9 +29.3 91 +55 +55 опасность
перегрева
996.1 995.6
03 15.08 В 6 4000 м дымка 3/3 450 м
[St]
+30.8 +29.3 92 +55 +55 опасность
перегрева
997.5 996.9 +30.5
06 15.08 В 9 5000 м дымка ясно +32.1 998.6 998.0
09 15.08 ЮВ 7 4000 м дымка ясно +32.2 +29.6 86 +57 +63 опасность
перегрева
997.9 997.3
12 15.08 Ю 3 4000 м дымка ясно +32.8 996.3 995.7
15 15.08 ЮВ 3 3000 м дымка ясно +31.3 +28.6 86 +53 +53 опасность
перегрева
996.4 995.8 +32.9
18 15.08 В 4 5000 м дымка ясно +30.9 +28.9 89 +53 +53 опасность
перегрева
997.8 997.2
21 15.08 В 7 5000 м дымка 4/4 450 м
[St]
+30.6 +28.9 91 +53 +53 опасность
перегрева
997.8 997.2
00 16.08 В 7 5000 м дымка ясно +30.2 +28.7 92 +52 +52 опасность
перегрева
998.1 997.6
03 16.08 В 7 4000 м дымка ясно +30.2 +28.8 92 +52 +52 опасность
перегрева
999.7 999.2 +30.0
06 16.08 ЮВ 6 4000 м дымка 4/4 300 м
[St]
+31.7 +30.0 91 +58 +62 опасность
перегрева
1000.6 1000.0
09 16.08 ЮВ 6 6000 м дымка ясно +32.1 +29.0 84 +56 +64 опасность
перегрева
999.6 999.1
12 16.08 ЮВ 5 7000 м дымка ясно +32.3 +28.6 100 +30 +33 жарко 997.6 997.1
15 16.08 ЮВ 5 10 км ясно +31.3 +28.6 86 +53 +53 опасность
перегрева
998.4 997.8 +32.6
18 16.08 В 6 4000 м дымка ясно +30.7 +28.6 89 +53 +53 опасность
перегрева
999.5 998.9
21 16.08 В 6 4000 м дымка ясно +30.1 +28.2 90 +51 +51 опасность
перегрева
999.4 998.9
00 17.08 В 7 4000 м дымка ясно +30.1 +28.0 89 +50 +50 опасность
перегрева
998.7 998.2
03 17.08 В 5 5000 м дымка 1/1 450 м
[St]
+30.1 +28.3 90 +51 +51 опасность
перегрева
999.4 998.9 +29.8
06 17.08 ЮВ 7 6000 м дымка 9/4 300 м
[St As trans]
+30.9 +28.9 89 +53 +55 опасность
перегрева
1000.5 999.9
09 17.08 ЮВ 6 6000 м дымка ясно +32.1 +29.1 84 +56 +64 опасность
перегрева
999.0 998.5
12 17.08 Ю 5 6000 м дымка ясно +32.8 +28.5 78 996.7 996.1
15 17.08 Ю 4 6000 м дымка ясно +31.5 +27.9 81 +51 +51 опасность
перегрева
996.1 995.5 +32.9
18 17.08 ЮВ 2 7000 м дымка ясно +31.1 +27.9 83 +51 +51 опасность
перегрева
997.1 996.5
21 17.08 В 4 6000 м дымка ясно +30.8 +28.0 85 +51 +51 опасность
перегрева
996.2 995.6
00 18.08 В 4 6000 м дымка ясно +30.5 +28.3 88 +51 +51 опасность
перегрева
995.4 994.8
03 18.08 В 6 6000 м дымка 9/9 450 м
[St]
+30.6 +28.6 89 +52 +52 опасность
перегрева
997.2 996.7 +30.1
06 18.08 ЮВ 7 6000 м дымка 9/9 450 м
[St]
+31.3 +29.1 88 +55 +55 опасность
перегрева
998.6 998.0
09 18.08 ЮВ 6 7000 м дымка ясно +32.3 +29.0 83 +56 +64 опасность
перегрева
997.2 996.6
12 18.08 ЮВ 4 8000 м дымка ясно +32.2 995.9 995.4

 

Местоположение метеостанции Jask (Иран): широта 25.63 долгота 57.77 высота над уровнем моря 3 м.

В архиве по умолчанию представлена погода в Jask за последнюю неделю. Архивные данные за месяц целиком и за предыдущие месяцы, начиная с января 2011 года, Вы можете получить, выбрав интересующий диапазон дат из раскрывающегося списка и нажав кнопку "Ввод!".


*Определитесь, кто Вы:
робот инопланетянин человек

Внимание! Время в таблицах - всемирное. Для получения местного времени необходимо прибавить поправку, которая в Jask равна 3.5 ч.

Смотрите также архив погоды в соседних городах и на ближайших метеорологических станциях:

Погода в Diba (Оман) (152 км)
Погода в Fujairah (ОАЭ) (156 км)
Погода в Khasab Airport (Оман) (165 км)
Погода в Khasab (Оман) (166 км)
Погода в Sohar Majis (Оман) (173 км)
Погода в Ras Al Khaimah Int Airport (ОАЭ) (185 км)
Погода в Suwaiq (Оман) (208 км)
Погода в Bandarabbass (Иран) (225 км)
Погода в Sharjah (ОАЭ) (228 км)
Погода в Seeb (Оман) (234 км)

Пояснения к столбцам:

Ветер - указаны скорость ветра в м/с - средняя за 10 мин, порывы в срок и между сроками (в фигурных скобках) и направление, откуда дует ветер: С - северный, СВ - северо-восточный, В - восточный, ЮВ - юго-восточный, Ю - южный, ЮЗ - юго-западный, З - западный, СЗ - северо-западный.
Видимость - горизонтальная дальность видимости в метрах или километрах. При видимости от 1 до 10 км при отсутствии осадков обычно наблюдается дымка, при ухудшении видимости до 1 км и менее - туман. В сухую погоду видимость может ухудшаться дымом, пылью или мглою.
Явления - указаны атмосферные явления, наблюдавшиеся в срок или в последний час перед сроком; фигурными скобками обозначены явления, наблюдавшиеся между сроками (за 1-3 часа до срока); квадратными скобками обозначены град или гололедные отложения с указанием их диаметра в мм.
Облачность - указаны через наклонную черту общая и нижняя облачность в баллах и высота нижней границы облаков в метрах; квадратными скобками обозначены формы облаков: Ci - перистые, Cs - перисто-слоистые, Cc - перисто-кучевые, Ac - высококучевые, As - высокослоистые, Sc - слоисто-кучевые, Ns - слоисто-дождевые, Cu - кучевые, Cb - кучево-дождевые. Подробнее классификацию облаков см. в Атласе облаков (PDF).
T - Температура воздуха - температура, измеренная на высоте 2 м над землей.
Td - Температура точки росы - температура, при понижении до которой содержащийся в воздухе водяной пар достигнет насыщения.
f - Относительная влажность воздуха - влажноcть воздуха, измеренная на высоте 2 м над землей.
Te - Эффективная температура - температура, которую ощущает одетый по сезону человек в тени. Характеристика душности погоды. При расчете учитывается влияние влажности воздуха и скорости ветра на теплоощущения человека.
Tes - Эффективная температура на солнце - температура, которую ощущает человек, с поправкой на солнечный нагрев. Характеристика знойности погоды. Зависит от высоты солнца над горизонтом, облачности и скорости ветра. Ночью, в пасмурную погоду, а также при ветре 12 м/с и более поправка равна нулю.
P - Атмосферное давление - приведенное к уровню моря атмосферное давление.
Po - Атмосферное давление - измеренное на уровне метеостанции атмосферное давление.
Tmin - Минимальная температура - минимум температуры воздуха на высоте 2 м над землей.
Tmax - Максимальная температура - максимум температуры воздуха на высоте 2 м над землей.
R - Количество осадков - Количество выпавших осадков за период времени, мм. При наведении курсора мыши на число - период времени, за который выпало указанное количество осадков.
R24 - Количество осадков - Количество выпавших осадков за 24 часа, мм.
S - Снежный покров - Высота снежного покрова, см. При наведении курсора мыши на число - состояние снежного покрова и степень покрытия местности в баллах.